Location: Peebles
(55.6412°N, 3.1714°W)
Time: 16:16:06
(UTC+01:00)

USA 281 - Pass Details

Date: 27 January 2022
Orbit: 1070 x 1089 km, 106.0° (Epoch: 25 March)

Event Time Altitude Azimuth Distance (km) Brightness Sun altitude
Rises 04:14:38 0° 32° (NNE) 3,903 6.8 -33.4°
Reaches altitude 10° 04:17:22 10° 24° (NNE) 2,946 5.9 -33.0°
Enters shadow 04:21:45 32° 347° (NNW) 1,796 4.3 -32.4°
